RH
16 21 26 44 52 44 45 46 67 75 89 90 88 88 92 97 86 62 55 53 56 56 56 55 59 53 52 51 55 66 75 74 70 70 70 72 69 67 63 60 55 50 54 55
18 18 22 41 52 45 51 50 69 79 83 82 85 81 83 94 86 73 57 53 56 56 59 57 60 54 53 54 55 60 71 72 69 71 69 68 67 66 66 62 56 58 55 53
16 16 27 39 46 46 62 60 64 71 75 74 72 82 85 95 88 71 55 57 52 59 58 56 57 55 53 52 55 56 57 73 70 64 65 62 61 60 63 62 61 58 57 56
18 24 26 38 43 48 50 53 62 68 65 69 67 78 78 89 92 77 55 53 54 55 54 58 55 55 54 53 53 52 53 58 73 69 61 62 61 61 59 60 62 59 56 54
20 23 27 33 46 47 49 53 62 64 60 58 63 66 73 85 89 83 67 53 50 54 52 53 55 54 56 54 52 50 48 53 62 70 77 68 67 57 58 55 58 58 56 51
36 24 30 30 41 47 46 54 59 58 59 50 51 54 69 79 74 80 78 66 53 49 49 51 54 57 59 55 52 50 46 44 52 63 72 71 69 65 56 56 55 53 54 55
33 29 30 31 34 45 51 59 58 54 53 48 45 46 57 59 61 67 71 75 67 47 45 48 52 56 54 54 52 48 46 45 45 52 62 72 70 73 65 61 58 53 56 55
32 31 29 24 25 35 47 54 54 56 49 46 51 48 52 56 58 61 69 79 83 65 47 50 50 54 53 54 54 49 44 46 46 48 54 63 76 80 71 67 65 62 60 53
33 36 30 25 24 24 35 49 51 49 42 44 49 50 55 58 55 59 65 79 86 78 62 54 53 56 62 57 57 53 47 44 46 47 49 53 65 81 82 72 63 64 61 61
38 37 30 24 23 22 26 38 50 46 46 48 49 48 59 56 55 60 68 72 85 86 75 70 63 57 56 58 65 64 57 42 44 46 48 51 55 64 79 79 73 70 62 59
37 30 32 26 21 22 23 24 31 38 36 39 40 47 52 55 57 64 68 69 74 78 78 80 78 68 65 66 73 64 68 51 47 51 51 54 53 60 69 77 75 79 75 62
37 34 45 28 24 25 24 22 25 30 44 36 46 61 58 50 59 64 69 75 76 76 79 80 82 80 77 73 74 82 88 78 53 50 51 51 59 54 61 68 76 76 70 72
45 36 44 45 32 24 25 23 27 31 34 39 37 40 55 54 62 68 78 79 78 80 80 83 82 84 82 84 85 83 87 87 70 53 54 58 53 48 50 58 72 74 75 77
45 48 44 43 35 30 28 29 26 34 36 34 39 52 59 53 62 70 78 80 83 82 84 83 86 86 90 90 89 89 93 91 86 67 59 64 62 52 50 48 55 71 72 68
49 50 41 46 46 40 38 30 28 28 35 34 35 40 54 49 56 69 73 77 80 82 84 87 85 73 76 83 86 94 92 93 91 79 77 70 68 61 58 53 45 48 57 61
58 55 49 44 41 44 43 38 37 35 37 40 44 60 51 46 53 64 71 76 79 84 81 82 82 80 83 85 89 93 97 98 86 92 88 85 85 80 76 74 61 42 43 50
64 63 56 53 45 43 52 51 48 44 40 44 41 57 45 49 54 61 68 74 74 78 78 79 84 83 86 84 89 92 90 87 88 90 87 87 85 82 84 84 77 66 50 49
63 60 60 61 51 50 60 52 48 52 51 48 49 51 51 49 58 63 67 70 70 74 77 78 80 78 79 80 82 87 88 86 86 92 88 84 75 80 94 96 92 85 72 59
55 52 64 60 63 69 56 56 52 51 60 53 57 53 54 54 55 65 65 67 72 74 76 74 74 73 76 79 79 78 80 77 84 90 87 79 74 86 94 93 90 88 85 77
47 45 51 60 61 68 69 57 53 52 60 59 60 60 59 61 57 62 62 68 72 75 75 73 72 74 76 73 74 78 80 83 86 86 82 78 74 75 80 85 84 88 91 82
57 54 52 53 57 62 61 59 54 60 69 61 69 66 62 64 63 59 66 69 71 76 78 80 79 80 81 79 79 78 80 83 82 87 88 81 72 69 68 69 72 81 82 82
61 60 56 53 53 56 51 48 55 65 63 59 64 66 68 70 71 72 74 74 75 76 83 84 85 83 82 79 81 76 76 82 87 88 91 86 78 75 67 61 56 56 56 60
48 53 64 56 61 54 50 51 47 52 59 61 62 65 69 76 79 81 81 79 81 81 83 85 82 80 77 71 66 64 56 55 60 67 77 82 77 58 52 47 42 39 37 38
35 41 50 51 56 54 52 51 49 49 49 54 59 65 64 69 79 82 83 83 85 83 80 79 74 69 66 61 59 56 54 51 49 48 46 44 41 38 35 35 36 38 38 36
36 32 36 43 48 51 53 53 51 49 49 52 56 57 60 67 72 79 84 87 86 85 82 75 71 70 67 63 57 50 47 45 42 40 37 40 37 38 35 35 36 35 31 31
31 35 33 39 41 36 43 36 37 43 50 53 52 60 62 65 70 77 84 86 87 87 83 76 73 75 71 64 55 49 47 41 39 36 37 37 36 36 35 33 32 32 32 30